Location: Ehrke Reservoir
(40.0279°N, 99.6641°W)
Time: 18:39:00
(UTC+00:00)

STARLINK-1117 - Pass Details

Date: 20 January 2020
Orbit: 348 x 351 km, 53.0° (Epoch: 25 February)

Event Time Altitude Azimuth Distance (km) Brightness Sun altitude
Rises 00:10:22 0° 252° (WSW) 2,161 9.5 -5.8°
Reaches altitude 10° 00:12:31 10° 264° (W) 1,321 7.1 -6.2°
Maximum altitude 00:15:10 30° 328° (NNW) 671 4.2 -6.7°
Drops below altitude 10° 00:17:50 10° 32° (NNE) 1,327 5.1 -7.1°
Enters shadow 00:18:30 - 37° (NE) 1,579 5.5 -7.3°
